THAICOM 4

Last updated on Sun Jun 21 2026 00:03:03 GMT+0000 (Coordinated Universal Time)

1 28786U 05028A 26171.44628647 -.00000367 00000+0 00000+0 0 9999 2 28786 0.2549 85.8466 0001774 349.9796 112.9969 1.00271473 52285
UTC large
Height (km)
Speed (km/s)
/
Latitude / Longitude
Inclination (degrees)
Orbital Period (minutes)
Azimuth
Elevation
Range (km)
Doppler Factor

Next 0 passes for location: London (51.5072 / 0.1276)

No passes found over London.
THAICOM 4